Weather History for Jackson, MN

Change the Weather History Date:

Tuesday, January 28, 2014

  Actual Average Record
Temperature  
Mean Temperature -2 °F -  
Max Temperature 5 °F 23 °F 41 °F (2008)
Min Temperature -9 °F 9 °F -14 °F (1997)
Degree Days  
Heating Degree Days 67    
Moisture  
Dew Point -11 °F    
Average Humidity 65    
Maximum Humidity 72    
Minimum Humidity 56    
Precipitation  
Precipitation 0.00 in - - ()
Sea Level Pressure  
Sea Level Pressure 30.25 in    
Wind  
Wind Speed 10 mph (West)    
Max Wind Speed 20 mph    
Max Gust Speed 24 mph    
Visibility 10 miles    
Events      
Averages and records for this station are not official NWS values.
T = Trace of Precipitation, MM = Missing Value Source: NWS Daily Summary

Daily Weather History Graph

Daily Weather History Graph

Search for Another Location

Airport:

Trip Planner

Search our weather history database for the weather conditions in past years. The results will help you decide how hot, cold, wet, or windy it might be!

Date:

Astronomy

Jan. 28, 2014 Rise Set
Actual Time 7:40 AM CST 5:25 PM CST
Civil Twilight 7:09 AM CST 5:56 PM CST
Nautical Twilight 6:35 AM CST 6:31 PM CST
Astronomical Twilight 6:01 AM CST 7:05 PM CST
Moon 5:24 AM CST (1/28) 3:15 PM CST (1/28)
Length of Visible Light 10h 46m
Length of Day
9h 45m
Waning Crescent, 7% of the Moon is Illuminated
Jan 28
Waning Crescent
Jan 30
New
Feb 6
First Quarter
Feb 14
Full
Feb 22
Last Quarter

Hourly Weather History & Observations

Time (CST) Temp. Windchill Dew Point Humidity Pressure Visibility Wind Dir Wind Speed Gust Speed Precip Events Conditions
12:13 AM -7.6 °F -22.1 °F -14.8 °F 71% 30.35 in 10.0 mi West 6.9 mph - N/A   Clear
12:33 AM -7.6 °F -20.6 °F -14.8 °F 71% 30.34 in 10.0 mi West 5.8 mph - N/A   Clear
12:52 AM -7.6 °F -22.1 °F -14.8 °F 71% 30.34 in 10.0 mi West 6.9 mph - N/A   Clear
1:13 AM -7.6 °F -22.1 °F -14.8 °F 71% 30.33 in 10.0 mi West 6.9 mph - N/A   Clear
1:33 AM -7.6 °F -22.1 °F -14.8 °F 71% 30.33 in 10.0 mi West 6.9 mph - N/A   Clear
1:52 AM -7.6 °F -22.1 °F -14.8 °F 71% 30.33 in 10.0 mi West 6.9 mph - N/A   Clear
2:13 AM -7.6 °F -23.4 °F -14.8 °F 71% 30.33 in 10.0 mi West 8.1 mph - N/A   Clear
2:33 AM -7.6 °F -24.6 °F -14.8 °F 71% 30.33 in 10.0 mi West 9.2 mph - N/A   Clear
2:52 AM -7.6 °F -22.1 °F -14.8 °F 71% 30.33 in 10.0 mi West 6.9 mph - N/A   Clear
3:13 AM -7.6 °F -23.4 °F -14.8 °F 71% 30.33 in 10.0 mi West 8.1 mph - N/A   Clear
3:33 AM -7.6 °F -22.1 °F -16.6 °F 65% 30.34 in 10.0 mi West 6.9 mph - N/A   Clear
3:52 AM -9.4 °F -25.6 °F -16.6 °F 71% 30.34 in 10.0 mi WSW 8.1 mph - N/A   Clear
4:13 AM -7.6 °F -22.1 °F -16.6 °F 65% 30.33 in 10.0 mi West 6.9 mph - N/A   Clear
4:33 AM -7.6 °F -22.1 °F -16.6 °F 65% 30.34 in 10.0 mi West 6.9 mph - N/A   Clear
4:52 AM -7.6 °F -23.4 °F -14.8 °F 71% 30.33 in 10.0 mi West 8.1 mph - N/A   Clear
5:13 AM -7.6 °F -23.4 °F -16.6 °F 65% 30.33 in 10.0 mi West 8.1 mph - N/A   Clear
5:33 AM -7.6 °F -23.4 °F -14.8 °F 71% 30.33 in 10.0 mi West 8.1 mph - N/A   Clear
5:52 AM -7.6 °F -23.4 °F -14.8 °F 71% 30.33 in 10.0 mi West 8.1 mph - N/A   Clear
6:13 AM -7.6 °F -23.4 °F -14.8 °F 71% 30.32 in 10.0 mi West 8.1 mph - N/A   Clear
6:32 AM -7.6 °F -23.4 °F -16.6 °F 65% 30.31 in 10.0 mi West 8.1 mph - N/A   Clear
6:53 AM -7.6 °F -20.6 °F -16.6 °F 65% 30.31 in 10.0 mi West 5.8 mph - N/A   Clear
7:13 AM -7.6 °F -25.7 °F -14.8 °F 71% 30.31 in 10.0 mi West 10.4 mph - N/A   Clear
7:33 AM -7.6 °F -25.7 °F -14.8 °F 71% 30.31 in 10.0 mi West 10.4 mph - N/A   Clear
7:53 AM -7.6 °F -24.6 °F -14.8 °F 71% 30.31 in 10.0 mi WNW 9.2 mph - N/A   Clear
8:13 AM -7.6 °F -24.6 °F -14.8 °F 71% 30.31 in 10.0 mi West 9.2 mph - N/A   Clear
8:33 AM -5.8 °F -23.4 °F -14.8 °F 65% 30.31 in 10.0 mi West 10.4 mph - N/A   Clear
8:53 AM -5.8 °F -23.4 °F -14.8 °F 65% 30.31 in 10.0 mi WNW 10.4 mph - N/A   Clear
9:13 AM -5.8 °F -25.2 °F -14.8 °F 65% 30.31 in 10.0 mi West 12.7 mph - N/A   Clear
9:32 AM -4.0 °F -23.7 °F -14.8 °F 60% 30.30 in 10.0 mi West 13.8 mph - N/A   Clear
9:53 AM -4.0 °F -23.7 °F -13.0 °F 65% 30.30 in 10.0 mi West 13.8 mph - N/A   Clear
10:12 AM -4.0 °F -24.5 °F -13.0 °F 65% 30.31 in 10.0 mi WNW 15.0 mph 19.6 mph N/A   Clear
10:33 AM -4.0 °F -24.5 °F -13.0 °F 65% 30.30 in 10.0 mi WNW 15.0 mph - N/A   Clear
10:53 AM -2.2 °F -20.7 °F -13.0 °F 60% 30.30 in 10.0 mi West 12.7 mph 19.6 mph N/A   Clear
11:13 AM -0.4 °F -19.2 °F -11.2 °F 60% 30.29 in 10.0 mi West 13.8 mph - N/A   Clear
11:33 AM 1.4 °F -17.6 °F -9.4 °F 61% 30.28 in 10.0 mi WNW 15.0 mph 20.7 mph N/A   Clear
11:53 AM 1.4 °F -18.8 °F -9.4 °F 61% 30.27 in 10.0 mi West 17.3 mph - N/A   Clear
12:13 PM 1.4 °F -18.8 °F -9.4 °F 61% 30.27 in 10.0 mi WNW 17.3 mph - N/A   Clear
12:33 PM 3.2 °F -15.3 °F -9.4 °F 56% 30.26 in 10.0 mi West 15.0 mph 19.6 mph N/A   Clear
12:53 PM 3.2 °F -15.9 °F -9.4 °F 56% 30.25 in 10.0 mi WNW 16.1 mph - N/A   Clear
1:13 PM 3.2 °F -16.5 °F -7.6 °F 61% 30.25 in 10.0 mi West 17.3 mph 21.9 mph N/A   Clear
1:33 PM 3.2 °F -17.6 °F -7.6 °F 61% 30.24 in 10.0 mi West 19.6 mph 23.0 mph N/A   Clear
1:53 PM 5.0 °F -13.6 °F -7.6 °F 56% 30.23 in 10.0 mi West 16.1 mph - N/A   Clear
2:13 PM 5.0 °F -14.7 °F -7.6 °F 56% 30.22 in 10.0 mi WNW 18.4 mph 21.9 mph N/A   Clear
2:33 PM 5.0 °F -13.0 °F -7.6 °F 56% 30.21 in 10.0 mi WNW 15.0 mph - N/A   Clear
2:53 PM 5.0 °F -14.7 °F -5.8 °F 61% 30.21 in 10.0 mi West 18.4 mph - N/A   Clear
3:13 PM 5.0 °F -14.7 °F -5.8 °F 61% 30.21 in 10.0 mi West 18.4 mph 23.0 mph N/A   Clear
3:33 PM 5.0 °F -14.7 °F -5.8 °F 61% 30.21 in 10.0 mi West 18.4 mph 24.2 mph N/A   Clear
3:53 PM 5.0 °F -14.2 °F -5.8 °F 61% 30.21 in 10.0 mi West 17.3 mph 24.2 mph N/A   Clear
4:13 PM 5.0 °F -13.0 °F -7.6 °F 56% 30.21 in 10.0 mi WNW 15.0 mph 21.9 mph N/A   Clear
4:33 PM 5.0 °F -11.6 °F -7.6 °F 56% 30.21 in 10.0 mi West 12.7 mph - N/A   Clear
4:53 PM 5.0 °F -13.0 °F -7.6 °F 56% 30.20 in 10.0 mi West 15.0 mph 20.7 mph N/A   Clear
5:13 PM 5.0 °F -13.0 °F -5.8 °F 61% 30.20 in 10.0 mi West 15.0 mph 19.6 mph N/A   Clear
5:33 PM 5.0 °F -12.3 °F -5.8 °F 61% 30.19 in 10.0 mi West 13.8 mph - N/A   Clear
5:53 PM 3.2 °F -12.2 °F -5.8 °F 66% 30.19 in 10.0 mi West 10.4 mph - N/A   Clear
6:13 PM 3.2 °F -13.1 °F -7.6 °F 61% 30.18 in 10.0 mi West 11.5 mph - N/A   Clear
6:33 PM 3.2 °F -11.3 °F -7.6 °F 61% 30.17 in 10.0 mi West 9.2 mph - N/A   Clear
6:53 PM 3.2 °F -12.2 °F -7.6 °F 61% 30.17 in 10.0 mi West 10.4 mph - N/A   Clear
7:13 PM 3.2 °F -11.3 °F -7.6 °F 61% 30.16 in 10.0 mi West 9.2 mph - N/A   Clear
7:33 PM 3.2 °F -11.3 °F -7.6 °F 61% 30.16 in 10.0 mi West 9.2 mph - N/A   Clear
7:53 PM 1.4 °F -12.5 °F -7.6 °F 66% 30.16 in 10.0 mi West 8.1 mph - N/A   Clear
8:13 PM 1.4 °F -13.5 °F -7.6 °F 66% 30.15 in 10.0 mi West 9.2 mph - N/A   Clear
8:33 PM 3.2 °F -12.2 °F -7.6 °F 61% 30.14 in 10.0 mi West 10.4 mph - N/A   Clear
8:53 PM 3.2 °F -11.3 °F -7.6 °F 61% 30.13 in 10.0 mi West 9.2 mph - N/A   Clear
9:13 PM 3.2 °F -10.3 °F -7.6 °F 61% 30.13 in 10.0 mi West 8.1 mph - N/A   Clear
9:33 PM 1.4 °F -12.5 °F -7.6 °F 66% 30.13 in 10.0 mi West 8.1 mph - N/A   Clear
9:53 PM 1.4 °F -9.9 °F -7.6 °F 66% 30.12 in 10.0 mi West 5.8 mph - N/A   Clear
10:13 PM 1.4 °F -12.5 °F -7.6 °F 66% 30.12 in 10.0 mi WSW 8.1 mph - N/A   Clear
10:33 PM 1.4 °F -8.3 °F -7.6 °F 66% 30.11 in 10.0 mi WSW 4.6 mph - N/A   Clear
10:53 PM -0.4 °F -12.0 °F -7.6 °F 72% 30.11 in 10.0 mi SW 5.8 mph - N/A   Clear
11:13 PM -0.4 °F -13.4 °F -7.6 °F 72% 30.11 in 10.0 mi SSW 6.9 mph - N/A   Clear
11:33 PM -0.4 °F -13.4 °F -9.4 °F 66% 30.11 in 10.0 mi SSW 6.9 mph - N/A   Clear
11:53 PM -0.4 °F -13.4 °F -9.4 °F 66% 30.10 in 10.0 mi SSW 6.9 mph - N/A   Clear